User: anonymous
Location: Melbourne
(37.8170°S, 144.9670°E)
Time: 04:35:15
(UTC+10:00)
Language:

CZ-3 R/B - Orbit

View from above orbital plane
View from above orbital plane
View from above satellite
View from above satellite

Ground track
Ground track

The orbit data is extracted from the following two-line orbital elements,

1 29517U 06048B   14243.11681505  .00050273  00000-0  14083-2 0  4421
2 29517 028.4567 150.9672 5295512 075.2920 017.8934 05.23946895103739
Epoch (UTC): 31 August 2014 02:48:12
Eccentricity: 0.5295512
inclination: 28.4567°
perigee height: 209 km
apogee height: 15039 km
right ascension of ascending node: 150.9672°
argument of perigee: 75.2920°
revolutions per day: 5.23946895
mean anomaly at epoch: 17.8934°
orbit number at epoch: 10373

The dashed part of the orbit path shows where the satellite is in the earth's shadow,  

DLR